Weather History for Vitoria, Spain

Change the Weather History Date:

Friday, November 16, 2012

  Actual Average Record
Temperature  
Mean Temperature 47 °F -  
Max Temperature 57 °F 50 °F 60 °F (1997)
Min Temperature 37 °F 35 °F 21 °F (2007)
Degree Days  
Heating Degree Days 18    
Moisture  
Dew Point 45 °F    
Average Humidity 95    
Maximum Humidity 100    
Minimum Humidity 77    
Precipitation  
Precipitation 0.00 in - - ()
Sea Level Pressure  
Sea Level Pressure 30.00 in    
Wind  
Wind Speed 3 mph ()    
Max Wind Speed 13 mph    
Max Gust Speed -    
Visibility 3.5 miles    
Events Fog    
Averages and records for this station are not official NWS values.
T = Trace of Precipitation, MM = Missing Value Source: Averaged Metar Reports

Daily Weather History Graph

Daily Weather History Graph

Search for Another Location

Airport:

Trip Planner

Search our weather history database for the weather conditions in past years. The results will help you decide how hot, cold, wet, or windy it might be!

Date:

Astronomy

Nov. 16, 2012 Rise Set
Actual Time 8:04 AM CET 5:46 PM CET
Civil Twilight 7:33 AM CET 6:17 PM CET
Nautical Twilight 6:59 AM CET 6:51 PM CET
Astronomical Twilight 6:26 AM CET 7:24 PM CET
Moon 10:47 AM CET (11/16) 8:28 PM CET (11/16)
Length of Visible Light 10h 43m
Length of Day
9h 41m
Waxing Crescent, 9% of the Moon is Illuminated
Nov 16
Waxing Crescent
Nov 20
First Quarter
Nov 28
Full
Dec 6
Last Quarter
Dec 13
New

Hourly Weather History & Observations

Time (CET) Temp. Windchill Dew Point Humidity Pressure Visibility Wind Dir Wind Speed Gust Speed Precip Events Conditions
12:00 AM 42.8 °F - 42.8 °F 100% 30.06 in 2.5 mi Calm Calm - N/A Fog Patches of Fog
12:30 AM 41.0 °F - 41.0 °F 100% 30.06 in 2.5 mi Calm Calm - N/A Fog Patches of Fog
1:00 AM 41.0 °F - 41.0 °F 100% 30.06 in 2.5 mi Calm Calm - N/A Fog Patches of Fog
1:30 AM 41.0 °F - 41.0 °F 100% 30.04 in 2.5 mi Variable 1.2 mph - N/A Fog Patches of Fog
3:00 AM 39.2 °F - 39.2 °F 100% 30.04 in 1.9 mi Calm Calm - N/A Fog Patches of Fog
3:30 AM 39.2 °F - 39.2 °F 100% 30.04 in 1.9 mi Variable 1.2 mph - N/A Fog Patches of Fog
4:00 AM 39.2 °F - 39.2 °F 100% 30.04 in 0.9 mi Calm Calm - N/A Fog Patches of Fog
4:30 AM 39.2 °F - 39.2 °F 100% 30.04 in 0.9 mi Calm Calm - N/A Fog Patches of Fog
5:00 AM 39.2 °F - 39.2 °F 100% 30.04 in 0.9 mi Calm Calm - N/A Fog Patches of Fog
5:30 AM 39.2 °F - 39.2 °F 100% 30.04 in 1.2 mi Variable 2.3 mph - N/A Fog Patches of Fog
6:00 AM 41.0 °F - 41.0 °F 100% 30.04 in 1.9 mi Variable 1.2 mph - N/A Fog Patches of Fog
6:30 AM 39.2 °F - 39.2 °F 100% 30.04 in 1.9 mi Calm Calm - N/A Fog Patches of Fog
7:00 AM 39.2 °F - 39.2 °F 100% 30.04 in 1.9 mi Calm Calm - N/A Fog Patches of Fog
7:30 AM 37.4 °F - 37.4 °F 100% 30.04 in 1.9 mi Calm Calm - N/A Fog Patches of Fog
7:41 AM 37.4 °F - 37.4 °F 100% 30.04 in 1.9 mi Calm Calm - N/A Fog Patches of Fog
8:00 AM 39.2 °F - 39.2 °F 100% 30.04 in 1.9 mi Calm Calm - N/A Fog Patches of Fog
8:30 AM 44.6 °F 42.2 °F 44.6 °F 100% 30.04 in 2.5 mi West 4.6 mph - N/A Fog Fog
9:00 AM 48.2 °F - 48.2 °F 100% 30.04 in 2.5 mi SW 9.2 mph - N/A   Mostly Cloudy
9:30 AM 50.0 °F - 50.0 °F 100% 30.04 in 3.7 mi WSW 5.8 mph - N/A   Mostly Cloudy
10:00 AM 50.0 °F - 50.0 °F 100% 30.04 in 3.7 mi WSW 5.8 mph - N/A   Mostly Cloudy
10:30 AM 53.6 °F - 51.8 °F 94% 30.04 in 3.7 mi WSW 5.8 mph - N/A   Scattered Clouds
11:00 AM 51.8 °F - 50.0 °F 94% 30.04 in 5.0 mi SW 5.8 mph - N/A   Scattered Clouds
11:30 AM 53.6 °F - 50.0 °F 88% 30.04 in 5.0 mi WSW 8.1 mph - N/A   Scattered Clouds
12:00 PM 55.4 °F - 50.0 °F 82% 30.04 in 5.0 mi WSW 8.1 mph - N/A   Partly Cloudy
12:30 PM 57.2 °F - 50.0 °F 77% 30.01 in 5.0 mi West 8.1 mph - N/A   Partly Cloudy
1:00 PM 57.2 °F - 50.0 °F 77% 30.01 in 5.6 mi WSW 6.9 mph - N/A   Partly Cloudy
1:30 PM 57.2 °F - 51.8 °F 82% 29.98 in 5.6 mi WSW 9.2 mph - N/A   Partly Cloudy
2:00 PM 55.4 °F - 50.0 °F 82% 29.98 in 5.6 mi SW 11.5 mph - N/A   Partly Cloudy
2:30 PM 55.4 °F - 51.8 °F 88% 29.95 in 5.6 mi SW 12.7 mph - N/A   Partly Cloudy
3:00 PM 55.4 °F - 51.8 °F 88% 29.95 in 5.6 mi SW 11.5 mph - N/A   Partly Cloudy
3:30 PM 55.4 °F - 50.0 °F 82% 29.95 in 5.6 mi WSW 11.5 mph - N/A   Partly Cloudy
4:00 PM 55.4 °F - 50.0 °F 82% 29.95 in 5.6 mi WSW 11.5 mph - N/A   Partly Cloudy
4:30 PM 53.6 °F - 50.0 °F 88% 29.95 in 5.6 mi SW 11.5 mph - N/A   Partly Cloudy
5:00 PM 51.8 °F - 50.0 °F 94% 29.95 in 5.6 mi SSW 12.7 mph - N/A   Partly Cloudy
5:30 PM 51.8 °F - 50.0 °F 94% 29.95 in 5.0 mi SW 10.4 mph - N/A   Partly Cloudy
6:00 PM 50.0 °F - 48.2 °F 94% 29.95 in 4.3 mi SW 8.1 mph - N/A   Partly Cloudy
6:30 PM 50.0 °F - 48.2 °F 94% 29.95 in 4.3 mi WSW 4.6 mph - N/A   Partly Cloudy
7:00 PM 48.2 °F - 46.4 °F 93% 29.95 in 4.3 mi Calm Calm - N/A   Partly Cloudy
7:30 PM 48.2 °F - 48.2 °F 100% 29.95 in 3.7 mi WSW 2.3 mph - N/A   Partly Cloudy
8:00 PM 46.4 °F - 46.4 °F 100% 29.95 in 3.7 mi Variable 1.2 mph - N/A   Partly Cloudy
8:30 PM 46.4 °F - 44.6 °F 93% 29.95 in 3.7 mi Variable 1.2 mph - N/A   Partly Cloudy
9:00 PM 44.6 °F - 44.6 °F 100% 29.92 in 3.7 mi Variable 1.2 mph - N/A   Partly Cloudy
9:30 PM 42.8 °F - 42.8 °F 100% 29.92 in 3.7 mi Variable 2.3 mph - N/A   Partly Cloudy
10:00 PM 42.8 °F - 42.8 °F 100% 29.92 in 3.7 mi Calm Calm - N/A   Partly Cloudy
10:30 PM 42.8 °F - 42.8 °F 100% 29.92 in 3.7 mi Calm Calm - N/A   Partly Cloudy
11:00 PM 39.2 °F - 39.2 °F 100% 29.92 in 3.7 mi North 2.3 mph - N/A   Partly Cloudy
11:30 PM 39.2 °F - 39.2 °F 100% 29.92 in 3.7 mi ENE 2.3 mph - N/A   Partly Cloudy